Regional Weather Roundup
Issued by NWS Mobile, AL

Home | Current Version | Previous Version | Text Only | Print | Product List | Glossary On
Versions: 1 2 3 4 5 6 7 8 9 10 11 12 13 14 15 16 17 18 19 20 21 22 23 24 25 26 27
000
ASUS44 KMOB 270712
RWRMOB
REGIONAL WEATHER ROUNDUP
NATIONAL WEATHER SERVICE MOBILE AL
100 AM CST MON FEB 27 2017

NOTE: "FAIR" INDICATES FEW OR NO CLOUDS BELOW 12,000 FEET WITH NO
      SIGNIFICANT WEATHER AND/OR OBSTRUCTIONS TO VISIBILITY.

  * THESE STATIONS ARE PART OF THE UNIVERSITY OF SOUTH ALABAMA
    MESONET AND ARE NOT UNDER NWS OR FAA QUALITY CONTROL.

ALZ061>064-270800-
COASTAL ALABAMA

CITY           SKY/WX    TMP DP  RH WIND       PRES   REMARKS
MOBILE REG APT CLEAR     49  44  83 E7        30.14F
BROOKLEY FIELD PTCLDY    52  51  97 CALM      30.17R
USA CAMPUS*      N/A     48  46  93 CALM      30.14F
DOG RIVER*       N/A     52  52 100 CALM      30.94S


CITY           SKY/WX    TMP DP  RH WIND       PRES   REMARKS
GULF SHORES    CLEAR     63  50  62 S10       30.14R

$$

ALZ051>060-270800-
INTERIOR SOUTHWEST AND SOUTH CENTRAL ALABAMA

CITY           SKY/WX    TMP DP  RH WIND       PRES   REMARKS
GREENVILLE     CLEAR     51  28  41 SE5       30.16S
EVERGREEN      CLEAR     42  38  85 CALM      30.16F
ATMORE*          N/A     48  45  87 SE5       30.16F
ANDALUSIA/OPP  CLEAR     49  36  61 E3        30.18R
ANDALUSIA*       N/A     50  34  53 E7        30.15F
FLORALA APT    CLEAR     46  36  68 CALM      30.19S
FLORALA*         N/A     46  37  71 CALM      30.94S

$$

FLZ001>006-270800-
WESTERN FLORIDA PANHANDLE

CITY           SKY/WX    TMP DP  RH WIND       PRES   REMARKS
PENSACOLA      CLEAR     58  52  80 E6        30.14S
NAS PENSACOLA  CLEAR     65  50  58 SE14      30.13S
MILTON         LGT RAIN  50  44  80 E7        30.15S
WHTNG S FIELD  CLEAR     56  47  71 E9        30.15F


CITY           SKY/WX    TMP DP  RH WIND       PRES   REMARKS
JAY*             N/A     50  43  76 E8        30.16S
DUKE FIELD     CLEAR     41  38  91 CALM      30.15S
CRESTVIEW      CLEAR     41  39  93 E3        30.18S
VALPARAISO     CLEAR     50  45  83 CALM      30.16S
DESTIN         CLEAR     59  53  80 E5        30.16S

$$

MSZ076-079-270800-
INTERIOR SOUTHEAST MISSISSIPPI

CITY           SKY/WX    TMP DP  RH WIND       PRES   REMARKS
LEAKESVILLE*   NOT AVBL
AGRICOLA*        N/A     52  48  87 CALM      30.13F

$$

MARINE OBSERVATIONS

STATION/POSITION TIME  TEMP    WIND        PRES    WAVE
                       AIR SEA DIR/SP/G            HT/PER
                 (UTC) (F)     (DEG/KT/KT) (MB)    (FT/S)
PASCAGOULA       0648   66                 1020.2F
PETIT BOIS ISLND 0648   66                 1020.9F
GRAND BAY        0545   66     150/ 12     1021.0S
E DAUPHIN ISLAND 0600   67     140/ 19/ 21 1020.2S
MIDDLE BAY LIGHT 0630   63      90/  4     1020.6R
USCG MOBILE BAY  0648   57 65              1021.7R
STATE DOCKS      0648   55 63              1021.0R
MEAHER PARK      0630   56        CALM     1020.6R
WEEKS BAY        0545   48                   N/A
FORT MORGAN      0648   67                   N/A
12 S ORANGE BCH  0650   68 68  140/ 17/ 19 1020.2R   4/ 5
PENSACOLA BAY    0648   67 66              1020.7R
67 S FORT MORGAN 0630   68     140/ 19     1020.0S

$$

SELECTED LOCATIONS ACROSS THE REGION

CITY           SKY/WX    TMP DP  RH WIND       PRES   REMARKS
NEW ORLEANS    MOCLDY    66  60  81 SE15      30.06F
GULFPORT       PTCLDY    66  58  75 SE17      30.10F
PASCAGOULA AP  MOCLDY    49  46  90 CALM      30.13F
PASCAGOULA*    NOT AVBL
HATTIESBURG    CLEAR     51  43  74 CALM      30.10F
LAUREL         CLEAR     54  43  66 SE6       30.11S
MERIDIAN       CLEAR     49  35  58 S6        30.10F
JACKSON        MOCLDY    57  45  64 S12       30.06F
MONTGOMERY     PTCLDY    49  32  52 E5        30.17F
TROY           PTCLDY    53  29  39 SE6       30.19R
ASHFORD*         N/A     50  34  53 E7        30.15F
DOTHAN         CLEAR     52  32  46 E8        30.22R
PANAMA CITY    CLEAR     51  38  60 NE6       30.15F

$$





USA.gov is the U.S. government's official web portal to all federal, state and local government web resources and services.